Location: Aydie
(43.5695°N, 0.1043°W)
Time: 12:30:57
(UTC+00:00)

Cosmos 1954 Rocket - Pass Details

Date: 17 November 2025
Orbit: 748 x 776 km, 74.0° (Epoch: 11 December)

Event Time Altitude Azimuth Distance (km) Brightness Sun altitude
Rises 18:43:32 0° 209° (SSW) 3,237 7.7 -23.4°
Reaches altitude 10° 18:45:57 10° 213° (SSW) 2,312 6.9 -23.9°
Maximum altitude 18:51:08 60° 293° (WNW) 883 4.5 -24.8°
Enters shadow 18:54:18 23° 6° (N) 1,577 5.5 -25.4°
